Regional Weather Roundup
Issued by NWS

Home | Current Version | Previous Version | Graphics & Text | Print | Product List | Glossary On
Versions: 1 2 3 4 5 6 7 8 9 10 11 12 13 14 15 16 17 18 19 20 21 22 23 24 25 26 27 28
000
ASUS45 KTFX 030710
RWRMT
MONTANA REGIONAL WEATHER ROUNDUP
NATIONAL WEATHER SERVICE GREAT FALLS MT
1200 AM MST SAT DEC 03 2016

NOTE: "FAIR" INDICATES FEW OR NO CLOUDS BELOW 12000 FEET WITH NO
SIGNIFICANT WEATHER AND/OR OBSTRUCTIONS TO VISIBILITY.

MTZ001>007-043-030800-
WEST OF THE DIVIDE

CITY           SKY/WX    TMP DP  RH WIND       PRES   REMARKS
KALISPELL      LGT SNOW  31  30  96 S9        30.02S FOG     WCI  23
MISSOULA       CLOUDY    30  27  88 NW3       30.07F
BUTTE          CLOUDY    26  18  71 NW3       30.01F
MULLAN PASS    LGT SNOW  22  20  92 SW9       29.94F FOG     WCI  12
ANACONDA         N/A     28  16  59 S14G21    30.01F WCI  17
DEER LODGE       N/A     27  21  80 CALM      30.04F
EUREKA           N/A     34  27  75 SE14      29.99S WCI  24
HAMILTON         N/A     36  18  48 S15       30.06F WCI  26
LIBBY            N/A     32  30  93 NW3       29.99S
PLAINS           N/A     38  24  57 CALM      30.04F
RONAN            N/A     33  25  73 CALM      30.06F
$$

MTZ008-052>055-030800-
SOUTHWEST MONTANA

CITY           SKY/WX    TMP DP  RH WIND       PRES   REMARKS
BOZEMAN        LGT SNOW  27  23  85 NE6       30.04F FOG     WCI  20
ENNIS          CLOUDY    23  19  86 S13       30.12F WCI  11
$$

MTZ009-010-012-014-046-048-049-054-030800-
EAST SLOPES AND CENTRAL MONTANA

CITY           SKY/WX    TMP DP  RH WIND       PRES   REMARKS
CUT BANK       CLEAR     32  19  58 W24G32    29.74S WCI  19
GREAT FALLS    CLEAR     30  20  66 SW26      29.85F WCI  16
MALMSTROM AFB  CLEAR     31  22  71 SW25G33   29.86F WCI  17
HELENA         CLOUDY    30  22  72 E7        29.99F WCI  23
AUGUSTA          N/A     34  19  53 W39G54    29.79F WCI  19
BOWMANS CRNR     N/A     26  18  72 S22       29.84F WCI  12
CHOTEAU          N/A     36  19  51 W13G18    29.78F WCI  27
CONRAD           N/A     28  24  85 S1        29.81F
FAIRFIELD        N/A     32  19  59 SW18G24   29.80F WCI  20
POWER            N/A     28  19  69 SW17      29.80F WCI  15
RAYNESFORD     MOCLDY    32  20  60 SW24G31   29.85F WCI  19
ULM              N/A     32  22  65 SW15G24   29.88F WCI  22
$$

MTZ011-013-016-021-045-047-050-051-030800-
NORTH CENTRAL MONTANA

CITY           SKY/WX    TMP DP  RH WIND       PRES   REMARKS
HAVRE          CLOUDY    33  27  78 SW18      29.81F WCI  22
LEWISTOWN      CLOUDY    30  19  63 SW9       29.85F WCI  22
N BAR RANCH    CLOUDY    27  12  54 W5        29.85F
CHINOOK          N/A     34  28  80 W8        29.82F WCI  27
DENTON         MOCLDY    32  26  79 SE10      29.81F WCI  23
GEYSER         MOCLDY    32  20  62 W23G33    29.82F WCI  19
GRASS RANGE    CLOUDY    29  19  65 W6        29.82F WCI  23
JUDITH GAP     CLOUDY    28  19  69 W18G25    29.85F WCI  15
ROY            CLOUDY    34  20  56 MISG      29.84F
STANFORD       CLOUDY    31  22  67 SW7       29.83F WCI  25
WINIFRED       LGT SNOW  29  27  89 MISG      29.84F
$$

MTZ017>020-022>027-061-062-030800-
NORTHEAST MONTANA

CITY           SKY/WX    TMP DP  RH WIND       PRES   REMARKS
GLASGOW        CLOUDY    26  20  77 S10       29.87F WCI  16
JORDAN           N/A     24  17  74 W3        29.90F
SIDNEY         CLEAR     20  18  92 S7        29.99F WCI  11
WOLF POINT     CLEAR     29  23  78 SW6       29.92F WCI  23
PLENTYWOOD       N/A     19  18  93 CALM      29.92F
POPLAR           N/A     28  21  74 S5        29.93F
SCOBEY           N/A     19  12  74 S1        29.87F
$$

MTZ028>42-056>058-030800-
SOUTHCENTRAL AND SOUTHEAST MONTANA

CITY           SKY/WX    TMP DP  RH WIND       PRES   REMARKS
LIVINGSTON     CLOUDY    30  12  47 W30G54    29.96F WCI  15
MILES CITY     CLEAR     23  18  81 S10       29.96F WCI  12
BIG TIMBER     CLOUDY    30  16  55 W32G44    29.92F WCI  15
EKALAKA          N/A     30  19  63 SE14      29.96F WCI  19
FORSYTH          N/A     27  19  74 CALM      29.95F
HARLOWTON      MOCLDY    30  19  63 W23G32    29.88F WCI  16
LAUREL           N/A     31  10  41 MISG      29.93F
ROUNDUP          N/A     26  11  53 S10       29.83F WCI  16
$$

REGIONAL REPORTS...DAKOTAS

CITY           SKY/WX    TMP DP  RH WIND       PRES   REMARKS
WILLISTON      CLEAR     24  20  84 S6        29.99F WCI  17
MINOT          CLEAR     22  20  92 SE6       30.06F WCI  14
DICKINSON      CLEAR     16  14  92 S10       30.02F WCI   4
CROSBY           N/A     23  23 100 S15       29.98F WCI  10
TIOGA            N/A     23  23 100 S13       30.00F WCI  11
WATFORD CITY     N/A     21  19  93 CALM      30.01F
BISMARCK       CLEAR     24  22  91 S9        30.15F WCI  14
BUFFALO SD       N/A     22  20  92 S8        29.97F WCI  12
RAPID CITY     CLEAR     21  17  84 SE7       30.09F WCI  12
$$

REGIONAL REPORTS...WYOMING/IDAHO/WASHINGTON

CITY           SKY/WX    TMP DP  RH WIND       PRES   REMARKS
GILLETTE       CLEAR     25  17  72 S22G29    29.96F WCI  10
SHERIDAN       CLEAR     19  12  74 CALM      29.96F
BUFFALO WY     CLEAR     21   6  52 W6        29.94F WCI  13
CODY           CLOUDY    30   9  41 W21G36    29.96  WCI  17
YELLOWSTONE LA   N/A     11   8  88 CALM      30.10S
IDAHO FALLS    CLOUDY    26  19  74 S12       30.22F WCI  16
SALMON         CLOUDY    28  19  69 CALM      30.14F
BOISE          CLOUDY    33  25  72 S6        30.27S WCI  28
SPOKANE        LGT RAIN  36  33  89 S14G21    30.02F WCI  27
$$

REGIONAL REPORTS...ALBERTA

CITY           SKY/WX    TMP DP  RH WIND       PRES   REMARKS
EDMONTON       PTCLDY    25  21  86 S6        29.64F WCI  18
CALGARY        MOCLDY    39  19  45 NW13      29.67R WCI  32
LETHBRIDGE     PTCLDY    37  21  52 W38G47    29.70F WCI  24
MEDICINE HAT   CLOUDY    37  25  60 S14G20    29.68F WCI  29
WATERTON GATE    N/A     34  19  55 SW33G51     N/A  WCI  19
CARDSTON         N/A     37  18  44 W21G31      N/A  WCI  27
MILK RIVER       N/A     30  21  69 W8          N/A  WCI  23
ONEFOUR          N/A     32  25  74 SW8         N/A  WCI  25
$$

REGIONAL REPORTS...SASKATCHEWAN

CITY           SKY/WX    TMP DP  RH WIND       PRES   REMARKS
SWIFT CURRENT  MOCLDY    27  23  86 SW18      29.70F WCI  13
REGINA         PTCLDY    23  21  93 SE17      29.86F WCI   9
SASKATOON      MOCLDY    25  19  80 SE10      29.81F WCI  15
VAL MARIE        N/A     25  21  86 S10         N/A  WCI  15
ROCKGLEN         N/A     21  19  93 S8          N/A  WCI  12
ASSINIBOIA       N/A     27  25  93 SE9         N/A  WCI  17
$$




USA.gov is the U.S. government's official web portal to all federal, state and local government web resources and services.